GW0692 Weather Reports


Display with metric or nautical units.
time (UTC)temp
F
wind
direction
speed
MPH
gust
MPH
rain 1hr
in
rain 24hr
in
rain mn
in
humidity
%
barometer
mb
20260510230549 65 219 10.0 14.0 0.00 0.00 0.00 39 1024.5
20260510230046 64 139 17.0 21.0 0.00 0.00 0.00 40 1024.0
20260510225543 65 123 9.0 12.0 0.00 0.00 0.00 39 1024.3
20260510225039 65 155 11.0 14.0 0.00 0.00 0.00 38 1024.0
20260510224534 66 162 8.0 12.0 0.00 0.00 0.00 37 1024.1
20260510224031 66 213 5.0 7.0 0.00 0.00 0.00 38 1024.1
20260510223530 66 144 5.0 7.0 0.00 0.00 0.00 36 1024.1
20260510223026 67 136 8.0 12.0 0.00 0.00 0.00 36 1024.3
20260510222524 66 207 7.0 9.0 0.00 0.00 0.00 37 1024.0
20260510222020 68 134 9.0 12.0 0.00 0.00 0.00 36 1024.3
20260510221516 66 127 9.0 10.0 0.00 0.00 0.00 38 1024.1
20260510221012 65 161 9.0 12.0 0.00 0.00 0.00 39 1024.0
20260510220508 67 186 9.0 14.0 0.00 0.00 0.00 38 1024.5
20260510220005 66 180 5.0 7.0 0.00 0.00 0.00 37 1024.4
20260510215502 66 225 13.0 17.0 0.00 0.00 0.00 39 1024.3
20260510215000 65 137 8.0 17.0 0.00 0.00 0.00 38 1024.3
20260510214456 66 149 16.0 21.0 0.00 0.00 0.00 38 1024.1
20260510213953 67 231 11.0 14.0 0.00 0.00 0.00 37 1024.4
20260510213450 67 241 8.0 14.0 0.00 0.00 0.00 36 1024.4
20260510212946 67 126 10.0 14.0 0.00 0.00 0.00 36 1024.4
20260510212443 66 161 6.0 7.0 0.00 0.00 0.00 38 1024.4
20260510211934 68 129 12.0 22.0 0.00 0.00 0.00 37 1024.3
20260510211432 65 174 13.0 17.0 0.00 0.00 0.00 39 1024.4
20260510210931 65 151 8.0 10.0 0.00 0.00 0.00 39 1024.5
20260510210427 65 169 7.0 12.0 0.00 0.00 0.00 39 1024.4
20260510205926 64 137 8.0 15.0 0.00 0.00 0.00 40 1024.5
20260510205421 65 52 5.0 7.0 0.00 0.00 0.00 39 1024.3
20260510204917 65 231 7.0 10.0 0.00 0.00 0.00 39 1024.6
20260510204414 67 152 9.0 14.0 0.00 0.00 0.00 37 1024.4
20260510203911 67 152 9.0 14.0 0.00 0.00 0.00 37 1024.4
20260510203409 68 181 14.0 21.0 0.00 0.00 0.00 36 1024.3
20260510202908 66 147 5.0 7.0 0.00 0.00 0.00 36 1024.3
20260510202404 65 160 13.0 17.0 0.00 0.00 0.00 39 1024.0
20260510201901 65 231 7.0 14.0 0.00 0.00 0.00 37 1023.9
20260510201358 66 107 12.0 14.0 0.00 0.00 0.00 36 1024.1
20260510200855 67 184 5.0 9.0 0.00 0.00 0.00 35 1024.0
20260510200354 66 162 5.0 7.0 0.00 0.00 0.00 35 1023.8
20260510195848 66 264 6.0 7.0 0.00 0.00 0.00 35 1023.9
20260510195346 68 110 6.0 7.0 0.00 0.00 0.00 34 1023.9
20260510194840 70 98 7.0 9.0 0.00 0.00 0.00 32 1023.6
20260510194337 67 196 7.0 12.0 0.00 0.00 0.00 34 1023.8
20260510193827 69 91 10.0 15.0 0.00 0.00 0.00 32 1023.9
20260510193322 71 127 9.0 12.0 0.00 0.00 0.00 31 1023.8
20260510192818 69 205 7.0 15.0 0.00 0.00 0.00 32 1023.8
20260510192313 67 196 6.0 9.0 0.00 0.00 0.00 32 1023.6
20260510191810 66 213 8.0 10.0 0.00 0.00 0.00 33 1023.9
20260510191305 66 283 5.0 5.0 0.00 0.00 0.00 33 1023.9
20260510190804 65 138 9.0 14.0 0.00 0.00 0.00 34 1023.8
20260510190301 66 314 5.0 9.0 0.00 0.00 0.00 33 1024.0
20260510185757 66 136 10.0 12.0 0.00 0.00 0.00 33 1023.6
20260510185255 65 94 7.0 10.0 0.00 0.00 0.00 34 1023.8
20260510184752 66 93 6.0 10.0 0.00 0.00 0.00 33 1023.8
20260510184248 66 135 7.0 10.0 0.00 0.00 0.00 33 1023.8
20260510183743 66 69 10.0 12.0 0.00 0.00 0.00 34 1023.9
20260510183238 66 281 8.0 12.0 0.00 0.00 0.00 34 1023.8
20260510182735 66 188 8.0 14.0 0.00 0.00 0.00 34 1023.9
20260510182231 66 165 8.0 10.0 0.00 0.00 0.00 34 1023.6
20260510181727 66 141 9.0 14.0 0.00 0.00 0.00 34 1023.9
20260510181225 67 130 11.0 14.0 0.00 0.00 0.00 34 1023.8
20260510180721 70 104 15.0 21.0 0.00 0.00 0.00 32 1023.8
20260510180219 70 116 13.0 17.0 0.00 0.00 0.00 31 1023.6
20260510175714 68 134 13.0 15.0 0.00 0.00 0.00 33 1023.8
20260510175211 67 131 8.0 10.0 0.00 0.00 0.00 34 1023.8
20260510174708 68 151 12.0 17.0 0.00 0.00 0.00 33 1023.9
20260510174205 70 115 11.0 15.0 0.00 0.00 0.00 32 1024.0
20260510173701 68 168 13.0 17.0 0.00 0.00 0.00 34 1023.5
20260510173157 68 70 11.0 14.0 0.00 0.00 0.00 32 1023.6
20260510172652 68 130 8.0 10.0 0.00 0.00 0.00 34 1023.8
20260510172149 67 79 11.0 19.0 0.00 0.00 0.00 36 1023.5
20260510171646 70 52 7.0 10.0 0.00 0.00 0.00 33 1023.9
20260510171143 68 98 17.0 24.0 0.00 0.00 0.00 32 1023.6
20260510170639 67 151 6.0 9.0 0.00 0.00 0.00 33 1023.6
20260510170136 64 101 16.0 21.0 0.00 0.00 0.00 36 1023.5
20260510165632 65 117 9.0 14.0 0.00 0.00 0.00 33 1023.6
20260510165128 66 82 10.0 12.0 0.00 0.00 0.00 31 1023.4
20260510164625 68 168 5.0 7.0 0.00 0.00 0.00 29 1023.4
20260510164122 68 200 15.0 17.0 0.00 0.00 0.00 29 1023.6
20260510163617 69 165 7.0 10.0 0.00 0.00 0.00 28 1023.6
20260510163114 68 66 10.0 14.0 0.00 0.00 0.00 29 1023.5
20260510162608 68 129 7.0 10.0 0.00 0.00 0.00 29 1023.5
20260510162105 69 92 11.0 14.0 0.00 0.00 0.00 29 1023.6
20260510161601 68 237 2.0 3.0 0.00 0.00 0.00 30 1023.5
20260510161058 67 139 7.0 9.0 0.00 0.00 0.00 30 1023.4
20260510160555 67 226 4.0 5.0 0.00 0.00 0.00 29 1023.3
20260510160054 66 145 6.0 7.0 0.00 0.00 0.00 31 1023.5
20260510155551 67 153 6.0 7.0 0.00 0.00 0.00 29 1023.4
20260510155048 66 200 3.0 3.0 0.00 0.00 0.00 30 1023.3
20260510154543 68 139 9.0 10.0 0.00 0.00 0.00 31 1023.4
20260510154038 67 327 3.0 5.0 0.00 0.00 0.00 30 1023.3
20260510153534 67 148 7.0 10.0 0.00 0.00 0.00 30 1023.2
20260510153031 66 143 7.0 9.0 0.00 0.00 0.00 30 1023.2
20260510152528 65 236 3.0 3.0 0.00 0.00 0.00 32 1023.3
20260510152024 65 195 5.0 7.0 0.00 0.00 0.00 33 1023.3
20260510151521 65 173 5.0 7.0 0.00 0.00 0.00 33 1023.3
20260510151019 65 112 6.0 9.0 0.00 0.00 0.00 34 1023.2
20260510150513 64 288 3.0 3.0 0.00 0.00 0.00 34 1023.3
20260510150010 64 199 4.0 5.0 0.00 0.00 0.00 34 1023.4
20260510145507 63 179 4.0 5.0 0.00 0.00 0.00 35 1022.9
20260510145003 62 199 5.0 12.0 0.00 0.00 0.00 36 1023.0
20260510144459 63 146 5.0 7.0 0.00 0.00 0.00 35 1023.3
20260510143954 62 239 4.0 5.0 0.00 0.00 0.00 35 1023.0
20260510143445 62 169 7.0 9.0 0.00 0.00 0.00 34 1023.0
20260510142942 62 210 5.0 7.0 0.00 0.00 0.00 35 1023.2
20260510142439 61 206 7.0 10.0 0.00 0.00 0.00 36 1022.9
20260510141935 61 134 6.0 7.0 0.00 0.00 0.00 36 1022.9
20260510141432 60 216 4.0 5.0 0.00 0.00 0.00 36 1022.9
20260510140929 61 197 6.0 7.0 0.00 0.00 0.00 36 1023.0
20260510140426 61 175 3.0 3.0 0.00 0.00 0.00 36 1022.7
20260510135924 62 157 8.0 14.0 0.00 0.00 0.00 35 1022.8
20260510135415 61 191 5.0 7.0 0.00 0.00 0.00 35 1022.8
20260510134913 60 234 3.0 3.0 0.00 0.00 0.00 36 1022.7
20260510134409 60 203 3.0 3.0 0.00 0.00 0.00 36 1022.7
20260510133905 60 268 5.0 5.0 0.00 0.00 0.00 36 1022.5
20260510133402 60 152 4.0 5.0 0.00 0.00 0.00 35 1022.8
20260510132857 60 208 5.0 7.0 0.00 0.00 0.00 36 1022.4
20260510132356 59 226 4.0 5.0 0.00 0.00 0.00 36 1022.5
20260510131852 58 214 4.0 5.0 0.00 0.00 0.00 37 1022.5
20260510131349 57 209 3.0 3.0 0.00 0.00 0.00 37 1022.3
20260510130846 57 245 3.0 3.0 0.00 0.00 0.00 37 1022.2
20260510130343 57 193 2.0 2.0 0.00 0.00 0.00 38 1022.7
20260510125840 56 237 1.0 2.0 0.00 0.00 0.00 38 1022.3
20260510125336 56 203 2.0 2.0 0.00 0.00 0.00 38 1021.9
20260510124834 56 192 3.0 3.0 0.00 0.00 0.00 38 1022.2
20260510124329 56 193 3.0 3.0 0.00 0.00 0.00 38 1022.2
20260510123825 56 226 4.0 5.0 0.00 0.00 0.00 38 1021.9
20260510123321 56 243 2.0 3.0 0.00 0.00 0.00 38 1022.2
20260510122818 55 219 3.0 5.0 0.00 0.00 0.00 39 1021.7
20260510122314 56 223 2.0 2.0 0.00 0.00 0.00 39 1021.8
20260510121810 56 238 2.0 2.0 0.00 0.00 0.00 39 1021.9
20260510121308 56 238 2.0 2.0 0.00 0.00 0.00 38 1021.8
20260510120805 57 204 3.0 3.0 0.00 0.00 0.00 38 1021.8
20260510120302 57 228 3.0 5.0 0.00 0.00 0.00 38 1021.7
20260510115757 57 208 2.0 3.0 0.00 0.00 0.00 37 1021.5
20260510115255 58 211 3.0 3.0 0.00 0.00 0.00 36 1021.5
20260510114750 58 168 4.0 7.0 0.00 0.00 0.00 35 1021.7
20260510114247 59 157 6.0 9.0 0.00 0.00 0.00 33 1021.5
20260510113742 59 170 3.0 5.0 0.00 0.00 0.00 33 1021.3
20260510113240 59 214 2.0 3.0 0.00 0.00 0.00 33 1021.5
20260510112736 59 236 2.0 2.0 0.00 0.00 0.00 32 1022.2
20260510112233 59 187 4.0 5.0 0.00 0.00 0.00 32 1021.9
20260510111728 60 226 2.0 2.0 0.00 0.00 0.00 32 1022.2
20260510111226 60 218 9.0 12.0 0.00 0.00 0.00 31 1022.4
20260510110725 60 246 5.0 7.0 0.00 0.00 0.00 31 1022.2
20260510110223 60 325 9.0 10.0 0.00 0.00 0.00 30 1021.9
20260510105723 60 248 2.0 3.0 0.00 0.00 0.00 29 1022.0
20260510105218 60 241 4.0 5.0 0.00 0.00 0.00 29 1021.8
20260510104715 59 50 3.0 3.0 0.00 0.00 0.00 30 1021.7
20260510104212 59 38 6.0 9.0 0.00 0.00 0.00 30 1021.7
20260510103708 59 291 5.0 7.0 0.00 0.00 0.00 27 1021.4
20260510103205 59 246 3.0 3.0 0.00 0.00 0.00 27 1021.4
20260510102700 59 259 2.0 3.0 0.00 0.00 0.00 26 1021.2
20260510102156 59 252 0.0 2.0 0.00 0.00 0.00 26 1020.9
20260510101654 60 254 0.0 0.0 0.00 0.00 0.00 26 1020.8
20260510101152 60 254 0.0 0.0 0.00 0.00 0.00 26 1020.9
20260510100653 60 251 0.0 0.0 0.00 0.00 0.00 26 1020.8
20260510100151 60 251 1.0 2.0 0.00 0.00 0.00 26 1020.7
20260510095646 60 253 0.0 0.0 0.00 0.00 0.00 26 1020.7
20260510095141 60 255 1.0 2.0 0.00 0.00 0.00 26 1020.8
20260510094640 61 269 0.0 0.0 0.00 0.00 0.00 25 1020.7
20260510094136 60 247 0.0 2.0 0.00 0.00 0.00 25 1020.5
20260510093632 60 262 1.0 2.0 0.00 0.00 0.00 26 1020.7
20260510093130 60 255 0.0 2.0 0.00 0.00 0.00 25 1020.3
20260510092626 60 253 0.0 2.0 0.00 0.00 0.00 26 1020.4
20260510092121 61 257 0.0 0.0 0.00 0.00 0.00 25 1020.7
20260510091617 60 273 1.0 3.0 0.00 0.00 0.00 25 1020.7
20260510091114 60 255 0.0 2.0 0.00 0.00 0.00 26 1020.4
20260510090611 60 268 0.0 2.0 0.00 0.00 0.00 26 1020.5
20260510090107 59 252 1.0 2.0 0.00 0.00 0.00 26 1020.7
20260510085602 59 258 0.0 0.0 0.00 0.00 0.00 26 1020.7
20260510085058 59 244 1.0 2.0 0.00 0.00 0.00 26 1020.5
20260510084554 59 251 2.0 2.0 0.00 0.00 0.00 26 1020.2
20260510084051 59 254 2.0 2.0 0.00 0.00 0.00 26 1020.4
20260510083548 59 255 0.0 0.0 0.00 0.00 0.00 26 1020.3
20260510083044 59 274 2.0 2.0 0.00 0.00 0.00 26 1019.9
20260510082541 59 263 0.0 0.0 0.00 0.00 0.00 26 1020.3
20260510082036 59 301 2.0 3.0 0.00 0.00 0.00 25 1020.2
20260510081532 59 316 1.0 3.0 0.00 0.00 0.00 25 1019.7
20260510081027 60 279 1.0 2.0 0.00 0.00 0.00 25 1019.9
20260510080526 59 262 0.0 2.0 0.00 0.00 0.00 25 1019.8
20260510080024 60 251 0.0 2.0 0.00 0.00 0.00 25 1019.7
20260510075521 59 253 0.0 0.0 0.00 0.00 0.00 25 1019.9
20260510075018 59 254 0.0 0.0 0.00 0.00 0.00 25 1019.7
20260510074516 59 291 1.0 2.0 0.00 0.00 0.00 25 1019.3
20260510074011 59 254 0.0 0.0 0.00 0.00 0.00 25 1019.5
20260510073507 59 253 1.0 2.0 0.00 0.00 0.00 24 1019.7
20260510073004 59 257 1.0 2.0 0.00 0.00 0.00 24 1019.8
20260510072500 59 245 0.0 2.0 0.00 0.00 0.00 24 1019.5
20260510071956 59 266 1.0 2.0 0.00 0.00 0.00 24 1019.7
20260510071452 60 279 1.0 2.0 0.00 0.00 0.00 24 1019.7
20260510070950 60 105 2.0 3.0 0.00 0.00 0.00 24 1019.7
20260510070448 60 249 0.0 0.0 0.00 0.00 0.00 23 1019.7
20260510065943 60 248 2.0 2.0 0.00 0.00 0.00 23 1019.7
20260510065440 60 301 1.0 2.0 0.00 0.00 0.00 22 1019.5
20260510064936 60 292 1.0 2.0 0.00 0.00 0.00 22 1019.4
20260510064434 60 304 2.0 2.0 0.00 0.00 0.00 22 1019.3
20260510063930 60 248 1.0 2.0 0.00 0.00 0.00 22 1019.8
20260510063426 60 357 2.0 5.0 0.00 0.00 0.00 22 1019.4
20260510062925 61 16 4.0 9.0 0.00 0.00 0.00 22 1019.4
20260510062419 60 345 4.0 5.0 0.00 0.00 0.00 22 1019.4
20260510061915 61 255 2.0 3.0 0.00 0.00 0.00 22 1019.4
20260510061412 61 316 3.0 3.0 0.00 0.00 0.00 22 1019.2
20260510060908 61 344 1.0 2.0 0.00 0.00 0.00 22 1019.3
20260510060405 61 18 3.0 5.0 0.00 0.00 0.00 21 1019.3
20260510055901 61 315 2.0 3.0 0.00 0.00 0.00 21 1019.0
20260510055356 61 227 4.0 5.0 0.00 0.00 0.00 21 1018.9
20260510054854 61 259 3.0 3.0 0.00 0.00 0.00 21 1018.9
20260510054350 61 238 2.0 3.0 0.00 0.00 0.00 21 1018.9
20260510053845 61 333 1.0 3.0 0.00 0.00 0.00 20 1018.8
20260510053341 61 246 2.0 2.0 0.00 0.00 0.00 20 1018.9
20260510052838 61 44 4.0 5.0 0.00 0.00 0.00 20 1018.7
20260510052333 62 259 0.0 2.0 0.00 0.00 0.00 20 1018.7
20260510051830 62 9 3.0 5.0 0.00 0.00 0.00 20 1018.7
20260510051327 62 285 3.0 3.0 0.00 0.00 0.00 20 1018.8
20260510050824 62 256 1.0 2.0 0.00 0.00 0.00 20 1018.4
20260510050320 62 226 3.0 3.0 0.00 0.00 0.00 20 1018.7
20260510045817 63 252 1.0 2.0 0.00 0.00 0.00 19 1018.7
20260510045314 63 263 2.0 2.0 0.00 0.00 0.00 19 1018.5
20260510044811 63 309 2.0 3.0 0.00 0.00 0.00 19 1018.7
20260510044308 63 181 2.0 3.0 0.00 0.00 0.00 19 1018.4
20260510043804 64 278 0.0 2.0 0.00 0.00 0.00 19 1018.5
20260510043300 64 235 1.0 2.0 0.00 0.00 0.00 19 1018.3
20260510042758 65 241 3.0 3.0 0.00 0.00 0.00 19 1018.5
20260510042253 65 242 3.0 7.0 0.00 0.00 0.00 19 1018.3
20260510041750 65 260 3.0 3.0 0.00 0.00 0.00 19 1018.4
20260510041247 66 238 3.0 5.0 0.00 0.00 0.00 19 1018.4
20260510040745 66 289 1.0 2.0 0.00 0.00 0.00 18 1018.2
20260510040236 66 244 2.0 2.0 0.00 0.00 0.00 19 1018.3
20260510035731 66 324 2.0 5.0 0.00 0.00 0.00 20 1018.4
20260510035227 67 266 0.0 0.0 0.00 0.00 0.00 19 1018.4
20260510034723 67 251 0.0 0.0 0.00 0.00 0.00 19 1018.5
20260510034221 68 263 2.0 2.0 0.00 0.00 0.00 19 1018.0
20260510033717 68 271 3.0 7.0 0.00 0.00 0.00 19 1018.2
20260510033215 68 227 1.0 2.0 0.00 0.00 0.00 19 1018.3
20260510032711 68 338 8.0 12.0 0.00 0.00 0.00 19 1018.3
20260510032207 68 242 4.0 5.0 0.00 0.00 0.00 18 1018.0
20260510031702 68 133 5.0 9.0 0.00 0.00 0.00 19 1017.9
20260510031158 68 90 18.0 27.0 0.00 0.00 0.00 21 1018.3
20260510030652 68 212 7.0 12.0 0.00 0.00 0.00 19 1018.3
20260510030150 68 223 1.0 2.0 0.00 0.00 0.00 19 1018.0
20260510025647 68 185 1.0 2.0 0.00 0.00 0.00 19 1018.0
20260510025144 68 197 3.0 3.0 0.00 0.00 0.00 19 1017.8
20260510024642 68 290 6.0 10.0 0.00 0.00 0.00 19 1017.8
20260510024138 68 216 1.0 2.0 0.00 0.00 0.00 19 1017.7
20260510023634 69 216 4.0 7.0 0.00 0.00 0.00 19 1017.7
20260510023132 69 211 2.0 3.0 0.00 0.00 0.00 19 1017.8
20260510022631 69 240 2.0 3.0 0.00 0.00 0.00 19 1017.7
20260510022126 69 263 2.0 3.0 0.00 0.00 0.00 19 1017.3
20260510021622 70 263 3.0 5.0 0.00 0.00 0.00 18 1017.3
20260510021120 70 254 4.0 5.0 0.00 0.00 0.00 18 1017.3
20260510020614 69 234 4.0 5.0 0.00 0.00 0.00 19 1017.2
20260510020109 69 317 7.0 9.0 0.00 0.00 0.00 19 1016.9
20260510015606 69 271 1.0 2.0 0.00 0.00 0.00 18 1016.9
20260510015103 69 240 2.0 3.0 0.00 0.00 0.00 18 1017.2
20260510014558 69 225 2.0 3.0 0.00 0.00 0.00 17 1017.3
20260510014056 70 240 1.0 2.0 0.00 0.00 0.00 17 1017.0
20260510013550 70 248 3.0 3.0 0.00 0.00 0.00 17 1017.2
20260510013046 70 253 5.0 7.0 0.00 0.00 0.00 16 1016.9
20260510012539 71 258 6.0 9.0 0.00 0.00 0.00 16 1016.5
20260510012037 71 252 3.0 5.0 0.00 0.00 0.00 16 1016.9
20260510011536 71 272 2.0 3.0 0.00 0.00 0.00 16 1017.0
20260510011032 72 285 4.0 5.0 0.00 0.00 0.00 16 1016.7
20260510010529 72 305 5.0 9.0 0.00 0.00 0.00 16 1016.7
20260510010026 72 255 6.0 10.0 0.00 0.00 0.00 16 1016.9
20260510005521 72 257 3.0 3.0 0.00 0.00 0.00 15 1016.8
20260510005020 73 267 3.0 3.0 0.00 0.00 0.00 15 1016.9
20260510004517 73 334 4.0 5.0 0.00 0.00 0.00 15 1016.5
20260510004015 73 267 4.0 5.0 0.00 0.00 0.00 15 1016.7
20260510003511 73 353 4.0 5.0 0.00 0.00 0.00 15 1016.7
20260510003007 73 271 5.0 9.0 0.00 0.00 0.00 14 1016.7
20260510002503 73 308 5.0 7.0 0.00 0.00 0.00 13 1016.5
20260510001959 74 257 4.0 5.0 0.00 0.00 0.00 13 1016.7
20260510001457 74 259 4.0 9.0 0.00 0.00 0.00 13 1016.8
20260510000955 74 345 5.0 7.0 0.00 0.00 0.00 13 1016.5
20260510000450 74 298 3.0 3.0 0.00 0.00 0.00 13 1016.7
20260509235947 76 283 3.0 3.0 0.00 0.00 0.00 13 1016.5
20260509235444 75 262 8.0 10.0 0.00 0.00 0.00 13 1016.8
20260509234940 76 309 8.0 10.0 0.00 0.00 0.00 13 1016.5
20260509234437 76 281 2.0 3.0 0.00 0.00 0.00 13 1016.5
20260509233935 77 232 4.0 7.0 0.00 0.00 0.00 13 1016.7
20260509233432 78 258 5.0 5.0 0.00 0.00 0.00 12 1016.7
20260509232928 77 237 3.0 7.0 0.00 0.00 0.00 12 1016.5
20260509232426 78 269 8.0 10.0 0.00 0.00 0.00 12 1016.8
20260509231921 79 277 11.0 15.0 0.00 0.00 0.00 12 1016.5
20260509231418 78 267 10.0 15.0 0.00 0.00 0.00 12 1016.8
20260509230917 79 243 6.0 9.0 0.00 0.00 0.00 12 1016.7